Time,TemperatureF,DewpointF,PressureIn,WindDirection,WindDirectionDegrees,WindSpeedMPH,WindSpeedGustMPH,Humidity,HourlyPrecipIn,Conditions,Clouds,dailyrainin,SoftwareType,DateUTC
2013-05-19 00:01:00,33.6,32.5,29.94,SSE,147,0.0,2.0,96,0.00,,,0.16,meteohub,2013-05-19 06:01:00,
2013-05-19 00:06:00,33.6,32.5,29.94,SSE,148,0.0,2.0,96,0.00,,,0.16,meteohub,2013-05-19 06:06:00,
2013-05-19 00:11:00,33.6,32.5,29.94,SSW,193,3.0,3.0,96,0.00,,,0.16,meteohub,2013-05-19 06:11:00,
2013-05-19 00:16:00,33.4,32.4,29.94,SSW,203,0.0,3.0,96,0.00,,,0.16,meteohub,2013-05-19 06:16:00,
2013-05-19 00:21:00,33.4,32.2,29.94,SSW,203,0.0,3.0,95,0.00,,,0.16,meteohub,2013-05-19 06:21:00,
2013-05-19 00:26:00,33.3,32.0,29.94,SSW,203,0.0,3.0,95,0.00,,,0.16,meteohub,2013-05-19 06:26:00,
2013-05-19 00:32:00,33.3,32.0,29.94,SW,217,1.0,2.0,95,0.00,,,0.16,meteohub,2013-05-19 06:32:00,
2013-05-19 00:37:00,33.1,31.8,29.94,SW,217,0.0,2.0,95,0.00,,,0.16,meteohub,2013-05-19 06:37:00,
2013-05-19 00:42:00,33.1,31.8,29.94,SW,217,0.0,2.0,95,0.00,,,0.16,meteohub,2013-05-19 06:42:00,
2013-05-19 00:47:00,32.9,31.6,29.94,West,264,1.0,2.0,95,0.00,,,0.16,meteohub,2013-05-19 06:47:00,
2013-05-19 00:52:00,32.9,31.8,29.94,WNW,287,2.0,2.0,96,0.00,,,0.16,meteohub,2013-05-19 06:52:00,
2013-05-19 00:57:00,32.7,31.6,29.94,West,281,2.0,4.0,96,0.00,,,0.16,meteohub,2013-05-19 06:57:00,
2013-05-19 01:02:00,32.7,31.6,29.94,WNW,291,2.0,4.0,96,0.00,,,0.16,meteohub,2013-05-19 07:02:00,
2013-05-19 01:07:00,32.7,31.6,29.94,West,273,1.0,5.0,96,0.00,,,0.16,meteohub,2013-05-19 07:07:00,
2013-05-19 01:12:00,32.7,31.6,29.94,WSW,247,0.0,5.0,96,0.00,,,0.16,meteohub,2013-05-19 07:12:00,
2013-05-19 01:17:00,32.7,31.6,29.94,SW,234,2.0,5.0,96,0.00,,,0.16,meteohub,2013-05-19 07:17:00,
2013-05-19 01:22:00,32.5,31.5,29.94,SW,226,3.0,5.0,96,0.00,,,0.16,meteohub,2013-05-19 07:22:00,
2013-05-19 01:27:00,32.5,31.5,29.94,SSW,211,3.0,8.0,96,0.00,,,0.16,meteohub,2013-05-19 07:27:00,
2013-05-19 01:32:00,32.5,31.5,29.94,SW,223,2.0,8.0,96,0.00,,,0.16,meteohub,2013-05-19 07:32:00,
2013-05-19 01:37:00,32.5,31.5,29.94,SSW,211,2.0,8.0,96,0.00,,,0.16,meteohub,2013-05-19 07:37:00,
2013-05-19 01:42:00,32.5,31.5,29.94,WNW,300,3.0,7.0,96,0.00,,,0.16,meteohub,2013-05-19 07:42:00,
2013-05-19 01:47:00,32.5,31.5,29.94,WSW,238,2.0,7.0,96,0.00,,,0.16,meteohub,2013-05-19 07:47:00,
2013-05-19 01:52:00,32.5,31.5,29.94,SW,228,2.0,5.0,96,0.00,,,0.16,meteohub,2013-05-19 07:52:00,
2013-05-19 01:57:00,32.5,31.5,29.94,SW,231,1.0,5.0,96,0.00,,,0.16,meteohub,2013-05-19 07:57:00,
2013-05-19 02:02:00,32.5,31.5,29.94,SSW,203,1.0,5.0,96,0.00,,,0.16,meteohub,2013-05-19 08:02:00,
2013-05-19 02:07:00,32.5,31.5,29.94,SW,219,1.0,5.0,96,0.01,,,0.17,meteohub,2013-05-19 08:07:00,
2013-05-19 02:12:00,32.4,31.3,29.94,SSW,192,4.0,5.0,96,0.01,,,0.17,meteohub,2013-05-19 08:12:00,
2013-05-19 02:17:00,32.4,31.3,29.94,SSW,208,2.0,5.0,96,0.01,,,0.17,meteohub,2013-05-19 08:17:00,
2013-05-19 02:22:00,32.4,31.3,29.94,SSW,199,2.0,5.0,96,0.01,,,0.17,meteohub,2013-05-19 08:22:00,
2013-05-19 02:27:00,32.4,31.3,29.94,South,172,2.0,5.0,96,0.01,,,0.17,meteohub,2013-05-19 08:27:00,
2013-05-19 02:32:00,32.4,31.3,29.94,South,172,1.0,5.0,96,0.01,,,0.17,meteohub,2013-05-19 08:32:00,
2013-05-19 02:37:00,32.4,31.3,29.94,SW,220,1.0,5.0,96,0.01,,,0.17,meteohub,2013-05-19 08:37:00,
2013-05-19 02:42:00,32.4,31.3,29.93,SW,220,0.0,4.0,96,0.01,,,0.17,meteohub,2013-05-19 08:42:00,
2013-05-19 02:47:00,32.4,31.3,29.93,SW,220,0.0,3.0,96,0.01,,,0.17,meteohub,2013-05-19 08:47:00,
2013-05-19 02:52:00,32.4,31.3,29.93,SW,220,0.0,3.0,96,0.01,,,0.17,meteohub,2013-05-19 08:52:00,
2013-05-19 02:57:00,32.5,31.5,29.93,SW,220,1.0,1.0,96,0.01,,,0.17,meteohub,2013-05-19 08:57:00,
2013-05-19 03:02:00,32.4,31.3,29.94,SW,220,0.0,2.0,96,0.00,,,0.17,meteohub,2013-05-19 09:02:00,
2013-05-19 03:07:00,32.4,31.3,29.94,SW,220,0.0,2.0,96,0.00,,,0.17,meteohub,2013-05-19 09:07:00,
2013-05-19 03:12:00,32.5,31.8,29.94,WNW,282,1.0,2.0,97,0.00,,,0.17,meteohub,2013-05-19 09:12:00,
2013-05-19 03:17:00,32.5,31.8,29.94,NW,313,2.0,2.0,97,0.00,,,0.17,meteohub,2013-05-19 09:17:00,
2013-05-19 03:22:00,32.5,31.8,29.94,WNW,294,1.0,2.0,97,0.00,,,0.17,meteohub,2013-05-19 09:22:00,
2013-05-19 03:27:00,32.5,31.8,29.93,NW,313,0.0,3.0,97,0.00,,,0.17,meteohub,2013-05-19 09:27:00,
2013-05-19 03:32:00,32.5,31.8,29.94,WNW,291,0.0,3.0,97,0.00,,,0.17,meteohub,2013-05-19 09:32:00,
2013-05-19 03:37:00,32.5,31.5,29.93,West,268,0.0,3.0,96,0.00,,,0.17,meteohub,2013-05-19 09:37:00,
2013-05-19 03:42:00,32.4,31.6,29.93,SW,226,0.0,3.0,97,0.00,,,0.17,meteohub,2013-05-19 09:42:00,
2013-05-19 03:47:00,32.4,31.6,29.93,SW,226,1.0,3.0,97,0.00,,,0.17,meteohub,2013-05-19 09:47:00,
2013-05-19 03:52:00,32.4,31.3,29.93,SW,226,0.0,3.0,96,0.00,,,0.17,meteohub,2013-05-19 09:52:00,
2013-05-19 03:57:00,32.4,31.6,29.94,SW,226,0.0,1.0,97,0.00,,,0.17,meteohub,2013-05-19 09:57:00,
2013-05-19 04:02:00,32.5,31.5,29.93,SW,226,0.0,2.0,96,0.00,,,0.17,meteohub,2013-05-19 10:02:00,
2013-05-19 04:07:00,32.5,31.5,29.93,SW,233,0.0,2.0,96,0.00,,,0.17,meteohub,2013-05-19 10:07:00,
2013-05-19 04:12:00,32.5,31.8,29.93,SW,230,1.0,2.0,97,0.00,,,0.17,meteohub,2013-05-19 10:12:00,
2013-05-19 04:17:00,32.5,31.5,29.93,SW,223,1.0,3.0,96,0.00,,,0.17,meteohub,2013-05-19 10:17:00,
2013-05-19 04:22:00,32.4,31.3,29.93,SW,223,0.0,4.0,96,0.00,,,0.17,meteohub,2013-05-19 10:22:00,
2013-05-19 04:27:00,32.4,31.3,29.92,SSW,207,2.0,4.0,96,0.00,,,0.17,meteohub,2013-05-19 10:27:00,
2013-05-19 04:32:00,32.4,31.3,29.92,SW,221,2.0,4.0,96,0.00,,,0.17,meteohub,2013-05-19 10:32:00,
2013-05-19 04:37:00,32.4,31.3,29.93,SW,221,1.0,4.0,96,0.00,,,0.17,meteohub,2013-05-19 10:37:00,
2013-05-19 04:42:00,32.4,31.3,29.92,SW,227,3.0,4.0,96,0.00,,,0.17,meteohub,2013-05-19 10:42:00,
2013-05-19 04:47:00,32.4,31.3,29.92,SW,227,0.0,3.0,96,0.00,,,0.17,meteohub,2013-05-19 10:47:00,
2013-05-19 04:52:00,32.4,31.1,29.92,SW,227,0.0,3.0,95,0.00,,,0.17,meteohub,2013-05-19 10:52:00,
2013-05-19 04:57:00,32.4,31.3,29.92,SW,227,1.0,3.0,96,0.00,,,0.17,meteohub,2013-05-19 10:57:00,
2013-05-19 05:02:00,32.4,31.3,29.92,SW,227,0.0,2.0,96,0.00,,,0.17,meteohub,2013-05-19 11:02:00,
2013-05-19 05:07:00,32.4,31.1,29.92,SSW,213,1.0,2.0,95,0.00,,,0.17,meteohub,2013-05-19 11:07:00,
2013-05-19 05:12:00,32.4,31.1,29.92,SSW,213,2.0,4.0,95,0.00,,,0.17,meteohub,2013-05-19 11:12:00,
2013-05-19 05:17:00,32.4,31.1,29.92,SSW,213,1.0,4.0,95,0.00,,,0.17,meteohub,2013-05-19 11:17:00,
2013-05-19 05:22:00,32.4,31.1,29.91,SSW,213,0.0,3.0,95,0.00,,,0.17,meteohub,2013-05-19 11:22:00,
2013-05-19 05:27:00,32.5,31.3,29.91,SSW,213,0.0,2.0,95,0.00,,,0.17,meteohub,2013-05-19 11:27:00,
2013-05-19 05:32:00,32.4,31.1,29.92,SSW,213,0.0,2.0,95,0.00,,,0.17,meteohub,2013-05-19 11:32:00,
2013-05-19 05:37:00,32.4,31.1,29.92,SSW,213,0.0,2.0,95,0.00,,,0.17,meteohub,2013-05-19 11:37:00,
2013-05-19 05:42:00,32.4,31.1,29.92,SSW,213,0.0,2.0,95,0.00,,,0.17,meteohub,2013-05-19 11:42:00,
2013-05-19 05:47:00,32.4,31.1,29.92,SSW,213,0.0,1.0,95,0.00,,,0.17,meteohub,2013-05-19 11:47:00,
2013-05-19 05:52:00,32.4,31.3,29.92,SSE,164,2.0,0.0,96,0.00,,,0.17,meteohub,2013-05-19 11:52:00,
2013-05-19 05:57:00,32.4,31.1,29.92,SW,214,0.0,3.0,95,0.00,,,0.17,meteohub,2013-05-19 11:57:00,
2013-05-19 06:02:00,32.4,31.1,29.92,SSW,207,1.0,3.0,95,0.00,,,0.17,meteohub,2013-05-19 12:02:00,
2013-05-19 06:07:00,32.4,31.1,29.92,SSW,207,0.0,3.0,95,0.00,,,0.17,meteohub,2013-05-19 12:07:00,
2013-05-19 06:12:00,32.4,31.1,29.92,SSW,211,0.0,3.0,95,0.00,,,0.17,meteohub,2013-05-19 12:12:00,
2013-05-19 06:17:00,32.5,31.5,29.91,SSW,211,1.0,3.0,96,0.00,,,0.17,meteohub,2013-05-19 12:17:00,
2013-05-19 06:22:00,32.5,31.3,29.92,SSW,211,0.0,2.0,95,0.00,,,0.17,meteohub,2013-05-19 12:22:00,
2013-05-19 06:27:00,32.4,31.1,29.92,SSW,197,1.0,2.0,95,0.00,,,0.17,meteohub,2013-05-19 12:27:00,
2013-05-19 06:32:00,32.4,31.1,29.92,WSW,237,2.0,4.0,95,0.00,,,0.17,meteohub,2013-05-19 12:32:00,
2013-05-19 06:37:00,32.5,31.3,29.92,SSW,211,1.0,4.0,95,0.00,,,0.17,meteohub,2013-05-19 12:37:00,
2013-05-19 06:42:00,32.5,31.3,29.92,SW,229,2.0,5.0,95,0.00,,,0.17,meteohub,2013-05-19 12:42:00,
2013-05-19 06:47:00,32.5,31.3,29.92,SW,236,0.0,5.0,95,0.00,,,0.17,meteohub,2013-05-19 12:47:00,
2013-05-19 06:52:00,32.5,31.3,29.92,SSE,157,0.0,5.0,95,0.00,,,0.17,meteohub,2013-05-19 12:52:00,
2013-05-19 06:57:00,32.5,31.3,29.92,SSE,157,0.0,3.0,95,0.00,,,0.17,meteohub,2013-05-19 12:57:00,
2013-05-19 07:02:00,32.7,31.5,29.92,SSE,157,0.0,3.0,95,0.00,,,0.17,meteohub,2013-05-19 13:02:00,
2013-05-19 07:07:00,32.7,31.5,29.92,SSE,157,0.0,1.0,95,0.00,,,0.17,meteohub,2013-05-19 13:07:00,
2013-05-19 07:12:00,32.7,31.5,29.92,South,190,1.0,1.0,95,0.00,,,0.17,meteohub,2013-05-19 13:12:00,
2013-05-19 07:17:00,32.9,31.6,29.92,West,272,1.0,1.0,95,0.00,,,0.17,meteohub,2013-05-19 13:17:00,
2013-05-19 07:22:00,33.1,31.8,29.92,West,272,1.0,2.0,95,0.00,,,0.17,meteohub,2013-05-19 13:22:00,
2013-05-19 07:27:00,33.1,31.8,29.92,West,272,0.0,2.0,95,0.00,,,0.17,meteohub,2013-05-19 13:27:00,
2013-05-19 07:32:00,33.1,31.8,29.91,West,272,0.0,2.0,95,0.00,,,0.17,meteohub,2013-05-19 13:32:00,
2013-05-19 07:37:00,33.1,31.8,29.91,West,272,1.0,2.0,95,0.01,,,0.18,meteohub,2013-05-19 13:37:00,
2013-05-19 07:42:00,33.3,32.2,29.92,WNW,303,3.0,3.0,96,0.01,,,0.18,meteohub,2013-05-19 13:42:00,
2013-05-19 07:47:00,33.3,32.0,29.92,West,281,3.0,3.0,95,0.01,,,0.18,meteohub,2013-05-19 13:47:00,
2013-05-19 07:52:00,33.3,32.0,29.92,West,278,2.0,7.0,95,0.01,,,0.18,meteohub,2013-05-19 13:52:00,
2013-05-19 07:57:00,33.3,32.0,29.92,West,277,1.0,7.0,95,0.01,,,0.18,meteohub,2013-05-19 13:57:00,
2013-05-19 08:02:00,33.3,32.0,29.92,West,259,1.0,7.0,95,0.02,,,0.19,meteohub,2013-05-19 14:02:00,
2013-05-19 08:07:00,33.3,32.2,29.92,WSW,246,2.0,7.0,96,0.02,,,0.19,meteohub,2013-05-19 14:07:00,
2013-05-19 08:12:00,33.1,31.8,29.93,SSW,199,3.0,4.0,95,0.02,,,0.19,meteohub,2013-05-19 14:12:00,
2013-05-19 08:17:00,32.7,31.1,29.93,SW,232,5.0,8.0,94,0.02,,,0.19,meteohub,2013-05-19 14:17:00,
2013-05-19 08:22:00,32.5,31.3,29.93,WSW,241,3.0,9.0,95,0.02,,,0.19,meteohub,2013-05-19 14:22:00,
2013-05-19 08:27:00,32.4,31.1,29.93,WSW,246,4.0,10.0,95,0.02,,,0.19,meteohub,2013-05-19 14:27:00,
2013-05-19 08:32:00,32.4,31.1,29.93,West,272,5.0,10.0,95,0.03,,,0.20,meteohub,2013-05-19 14:32:00,
2013-05-19 08:37:00,32.4,31.3,29.93,SW,217,6.0,10.0,96,0.02,,,0.20,meteohub,2013-05-19 14:37:00,
2013-05-19 08:42:00,32.5,31.3,29.93,SSW,205,4.0,10.0,95,0.02,,,0.20,meteohub,2013-05-19 14:42:00,
2013-05-19 08:47:00,32.7,31.5,29.93,SSW,212,5.0,8.0,95,0.03,,,0.21,meteohub,2013-05-19 14:47:00,
2013-05-19 08:52:00,33.1,31.8,29.93,SW,219,5.0,8.0,95,0.04,,,0.22,meteohub,2013-05-19 14:52:00,
2013-05-19 08:57:00,33.1,31.3,29.93,SSW,213,4.0,7.0,93,0.05,,,0.23,meteohub,2013-05-19 14:57:00,
2013-05-19 09:02:00,33.3,31.5,29.93,WSW,240,4.0,10.0,93,0.04,,,0.23,meteohub,2013-05-19 15:02:00,
2013-05-19 09:07:00,33.6,32.0,29.93,SSW,208,3.0,10.0,94,0.05,,,0.24,meteohub,2013-05-19 15:07:00,
2013-05-19 09:12:00,33.8,32.0,29.93,SSW,194,3.0,10.0,93,0.05,,,0.24,meteohub,2013-05-19 15:12:00,
2013-05-19 09:17:00,34.0,32.2,29.93,SW,217,3.0,8.0,93,0.06,,,0.25,meteohub,2013-05-19 15:17:00,
2013-05-19 09:22:00,34.2,32.4,29.93,SW,225,3.0,7.0,93,0.07,,,0.26,meteohub,2013-05-19 15:22:00,
2013-05-19 09:27:00,34.2,32.0,29.92,South,172,6.0,7.0,92,0.07,,,0.27,meteohub,2013-05-19 15:27:00,
2013-05-19 09:32:00,34.3,32.5,29.92,WSW,240,5.0,10.0,93,0.07,,,0.27,meteohub,2013-05-19 15:32:00,
2013-05-19 09:37:00,34.5,32.9,29.92,SW,232,4.0,10.0,94,0.07,,,0.27,meteohub,2013-05-19 15:37:00,
2013-05-19 09:42:00,34.7,32.5,29.92,SSW,212,6.0,10.0,92,0.07,,,0.28,meteohub,2013-05-19 15:42:00,
2013-05-19 09:47:00,35.1,33.3,29.91,SE,142,4.0,9.0,93,0.08,,,0.29,meteohub,2013-05-19 15:47:00,
2013-05-19 09:52:00,35.2,33.1,29.91,WSW,244,4.0,9.0,92,0.07,,,0.29,meteohub,2013-05-19 15:52:00,
2013-05-19 09:57:00,36.0,34.2,29.91,SSW,213,8.0,10.0,93,0.07,,,0.30,meteohub,2013-05-19 15:57:00,
2013-05-19 10:02:00,36.3,34.2,29.91,West,274,5.0,10.0,92,0.08,,,0.31,meteohub,2013-05-19 16:02:00,
2013-05-19 10:07:00,36.7,34.5,29.91,NW,323,6.0,15.0,92,0.07,,,0.31,meteohub,2013-05-19 16:07:00,
2013-05-19 10:12:00,36.7,33.8,29.91,West,280,3.0,15.0,89,0.07,,,0.32,meteohub,2013-05-19 16:12:00,
2013-05-19 10:17:00,36.9,34.5,29.91,WSW,243,5.0,15.0,91,0.07,,,0.33,meteohub,2013-05-19 16:17:00,
2013-05-19 10:23:00,37.2,34.9,29.91,West,269,5.0,8.0,91,0.07,,,0.33,meteohub,2013-05-19 16:23:00,
2013-05-19 10:28:00,37.9,35.2,29.91,WNW,295,7.0,9.0,90,0.07,,,0.34,meteohub,2013-05-19 16:28:00,
2013-05-19 10:33:00,38.5,34.9,29.91,WSW,238,3.0,10.0,87,0.08,,,0.35,meteohub,2013-05-19 16:33:00,
2013-05-19 10:38:00,38.8,35.1,29.91,SW,216,2.0,10.0,86,0.07,,,0.35,meteohub,2013-05-19 16:38:00,
2013-05-19 10:43:00,38.8,33.4,29.90,NNW,332,6.0,8.0,81,0.07,,,0.35,meteohub,2013-05-19 16:43:00,
2013-05-19 10:48:00,39.0,34.9,29.90,NNW,327,2.0,8.0,85,0.07,,,0.36,meteohub,2013-05-19 16:48:00,
2013-05-19 10:53:00,39.9,34.9,29.90,WNW,296,8.0,8.0,82,0.06,,,0.36,meteohub,2013-05-19 16:53:00,
2013-05-19 10:58:00,40.3,32.4,29.90,WNW,292,5.0,10.0,73,0.06,,,0.36,meteohub,2013-05-19 16:58:00,
2013-05-19 11:03:00,40.6,34.7,29.90,West,259,2.0,10.0,79,0.06,,,0.37,meteohub,2013-05-19 17:03:00,
2013-05-19 11:08:00,41.4,34.3,29.90,NW,318,6.0,10.0,76,0.05,,,0.37,meteohub,2013-05-19 17:08:00,
2013-05-19 11:13:00,41.9,32.9,29.90,West,276,7.0,9.0,70,0.05,,,0.37,meteohub,2013-05-19 17:13:00,
2013-05-19 11:18:00,42.3,32.2,29.90,NW,313,2.0,8.0,67,0.04,,,0.37,meteohub,2013-05-19 17:18:00,
2013-05-19 11:23:00,42.4,32.2,29.90,South,186,4.0,8.0,67,0.04,,,0.37,meteohub,2013-05-19 17:23:00,
2013-05-19 11:29:00,42.1,31.5,29.90,West,266,5.0,9.0,66,0.03,,,0.37,meteohub,2013-05-19 17:29:00,
2013-05-19 11:34:00,41.7,29.7,29.90,SW,233,5.0,13.0,62,0.02,,,0.37,meteohub,2013-05-19 17:34:00,
2013-05-19 11:39:00,41.7,31.3,29.90,NW,321,4.0,13.0,66,0.02,,,0.37,meteohub,2013-05-19 17:39:00,
2013-05-19 11:44:00,42.4,30.7,29.90,WNW,290,1.0,13.0,63,0.02,,,0.37,meteohub,2013-05-19 17:44:00,
2013-05-19 11:49:00,43.0,32.0,29.90,NNW,346,1.0,13.0,65,0.01,,,0.37,meteohub,2013-05-19 17:49:00,
2013-05-19 11:54:00,43.3,33.4,29.90,NNW,347,7.0,10.0,68,0.01,,,0.37,meteohub,2013-05-19 17:54:00,
2013-05-19 11:59:00,43.2,32.5,29.90,North,355,3.0,12.0,66,0.01,,,0.37,meteohub,2013-05-19 17:59:00,
2013-05-19 12:04:00,43.0,33.4,29.90,NNW,330,3.0,12.0,69,0.00,,,0.37,meteohub,2013-05-19 18:04:00,
2013-05-19 12:09:00,43.2,34.3,29.90,WNW,291,1.0,12.0,71,0.00,,,0.37,meteohub,2013-05-19 18:09:00,
2013-05-19 12:14:00,43.9,34.0,29.90,West,260,6.0,11.0,68,0.00,,,0.37,meteohub,2013-05-19 18:14:00,
2013-05-19 12:19:00,43.5,34.0,29.90,WSW,256,10.0,10.0,69,0.00,,,0.37,meteohub,2013-05-19 18:19:00,
2013-05-19 12:24:00,42.8,33.3,29.90,WNW,292,8.0,15.0,69,0.00,,,0.37,meteohub,2013-05-19 18:24:00,
2013-05-19 12:29:00,41.7,32.4,29.90,SW,230,10.0,15.0,69,0.00,,,0.37,meteohub,2013-05-19 18:29:00,
2013-05-19 12:35:00,40.3,32.7,29.91,West,265,6.0,15.0,74,0.00,,,0.37,meteohub,2013-05-19 18:35:00,
2013-05-19 12:40:00,39.7,31.8,29.90,SSW,212,7.0,14.0,73,0.00,,,0.37,meteohub,2013-05-19 18:40:00,
2013-05-19 12:45:00,40.3,31.3,29.90,WSW,240,4.0,14.0,70,0.00,,,0.37,meteohub,2013-05-19 18:45:00,
2013-05-19 12:50:00,40.3,32.0,29.91,NW,306,10.0,12.0,72,0.00,,,0.37,meteohub,2013-05-19 18:50:00,
2013-05-19 12:55:00,40.5,30.4,29.91,WSW,245,7.0,12.0,67,0.00,,,0.37,meteohub,2013-05-19 18:55:00,
2013-05-19 13:00:00,40.3,30.6,29.90,WNW,295,1.0,12.0,68,0.00,,,0.37,meteohub,2013-05-19 19:00:00,
2013-05-19 13:05:00,40.6,30.9,29.90,West,274,5.0,11.0,68,0.00,,,0.37,meteohub,2013-05-19 19:05:00,
2013-05-19 13:10:00,41.7,31.6,29.91,NW,305,4.0,12.0,67,0.00,,,0.37,meteohub,2013-05-19 19:10:00,
2013-05-19 13:15:00,42.8,34.0,29.91,NW,312,4.0,12.0,71,0.00,,,0.37,meteohub,2013-05-19 19:15:00,
2013-05-19 13:20:00,43.3,36.0,29.90,NNW,332,3.0,12.0,75,0.00,,,0.37,meteohub,2013-05-19 19:20:00,
2013-05-19 13:25:00,43.5,32.5,29.90,WNW,301,4.0,12.0,65,0.00,,,0.37,meteohub,2013-05-19 19:25:00,
2013-05-19 13:30:00,43.3,32.0,29.91,SSW,207,3.0,12.0,64,0.00,,,0.37,meteohub,2013-05-19 19:30:00,
2013-05-19 13:35:00,41.7,32.0,29.92,SW,226,7.0,16.0,68,0.00,,,0.37,meteohub,2013-05-19 19:35:00,
2013-05-19 13:41:00,39.6,32.0,29.92,SSW,201,6.0,16.0,74,0.00,,,0.37,meteohub,2013-05-19 19:41:00,
2013-05-19 13:46:00,38.3,31.6,29.93,WNW,288,15.0,16.0,77,0.00,,,0.37,meteohub,2013-05-19 19:46:00,
2013-05-19 13:51:00,37.2,32.2,29.95,WSW,241,4.0,15.0,82,0.00,,,0.37,meteohub,2013-05-19 19:51:00,
2013-05-19 13:56:00,35.8,31.6,29.95,SSW,207,4.0,15.0,85,0.00,,,0.37,meteohub,2013-05-19 19:56:00,
2013-05-19 14:01:00,34.5,31.3,29.95,SW,226,5.0,15.0,88,0.00,,,0.37,meteohub,2013-05-19 20:01:00,
2013-05-19 14:06:00,34.2,31.8,29.95,SW,221,3.0,15.0,91,0.00,,,0.37,meteohub,2013-05-19 20:06:00,
2013-05-19 14:11:00,34.2,32.0,29.95,SW,215,5.0,10.0,92,0.01,,,0.37,meteohub,2013-05-19 20:11:00,
2013-05-19 14:16:00,34.9,32.5,29.96,SW,222,4.0,10.0,91,0.01,,,0.38,meteohub,2013-05-19 20:16:00,
2013-05-19 14:21:00,35.8,32.5,29.96,SSW,199,3.0,8.0,88,0.02,,,0.39,meteohub,2013-05-19 20:21:00,
2013-05-19 14:26:00,36.7,32.9,29.95,SW,236,4.0,8.0,86,0.02,,,0.39,meteohub,2013-05-19 20:26:00,
2013-05-19 14:31:00,37.4,33.1,29.95,West,275,3.0,10.0,84,0.02,,,0.39,meteohub,2013-05-19 20:31:00,
2013-05-19 14:36:00,37.9,33.6,29.96,WNW,293,3.0,10.0,84,0.02,,,0.39,meteohub,2013-05-19 20:36:00,
2013-05-19 14:41:00,38.5,33.4,29.96,West,269,1.0,10.0,82,0.02,,,0.39,meteohub,2013-05-19 20:41:00,
2013-05-19 14:46:00,38.8,33.4,29.96,SSW,211,6.0,9.0,81,0.02,,,0.39,meteohub,2013-05-19 20:46:00,
2013-05-19 14:51:00,39.0,32.7,29.95,WSW,255,2.0,9.0,78,0.02,,,0.39,meteohub,2013-05-19 20:51:00,
2013-05-19 14:57:00,39.6,32.5,29.95,SW,230,5.0,8.0,76,0.02,,,0.39,meteohub,2013-05-19 20:57:00,
2013-05-19 15:02:00,39.9,32.7,29.95,West,268,5.0,8.0,75,0.02,,,0.39,meteohub,2013-05-19 21:02:00,
2013-05-19 15:07:00,40.8,33.3,29.95,WSW,238,5.0,8.0,74,0.02,,,0.39,meteohub,2013-05-19 21:07:00,
2013-05-19 15:12:00,41.4,33.1,29.94,SW,217,8.0,9.0,72,0.01,,,0.39,meteohub,2013-05-19 21:12:00,
2013-05-19 15:17:00,41.7,32.7,29.94,SW,220,2.0,11.0,70,0.01,,,0.39,meteohub,2013-05-19 21:17:00,
2013-05-19 15:22:00,42.3,33.3,29.94,WSW,237,3.0,11.0,70,0.00,,,0.39,meteohub,2013-05-19 21:22:00,
2013-05-19 15:27:00,42.3,32.9,29.94,NW,320,8.0,11.0,69,0.00,,,0.39,meteohub,2013-05-19 21:27:00,
2013-05-19 15:32:00,43.2,31.8,29.94,WSW,239,2.0,11.0,64,0.00,,,0.39,meteohub,2013-05-19 21:32:00,
2013-05-19 15:37:00,43.5,29.7,29.94,SW,224,4.0,11.0,58,0.00,,,0.39,meteohub,2013-05-19 21:37:00,
2013-05-19 15:42:00,43.9,29.7,29.94,SW,236,3.0,11.0,57,0.00,,,0.39,meteohub,2013-05-19 21:42:00,
2013-05-19 15:47:00,43.9,29.7,29.94,SW,231,5.0,11.0,57,0.00,,,0.39,meteohub,2013-05-19 21:47:00,
2013-05-19 15:52:00,44.1,29.8,29.94,WNW,291,4.0,11.0,57,0.00,,,0.39,meteohub,2013-05-19 21:52:00,
2013-05-19 15:57:00,44.2,31.6,29.95,West,273,3.0,11.0,61,0.00,,,0.39,meteohub,2013-05-19 21:57:00,
2013-05-19 16:02:00,44.4,32.5,29.95,WSW,244,2.0,11.0,63,0.00,,,0.39,meteohub,2013-05-19 22:02:00,
2013-05-19 16:07:00,44.8,31.8,29.95,West,275,8.0,11.0,60,0.00,,,0.39,meteohub,2013-05-19 22:07:00,
2013-05-19 16:12:00,44.2,30.7,29.95,SW,234,4.0,11.0,59,0.00,,,0.39,meteohub,2013-05-19 22:12:00,
2013-05-19 16:17:00,43.5,31.8,29.96,SW,233,7.0,14.0,63,0.00,,,0.39,meteohub,2013-05-19 22:17:00,
2013-05-19 16:22:00,42.1,32.4,29.96,WSW,246,3.0,14.0,68,0.00,,,0.39,meteohub,2013-05-19 22:22:00,
2013-05-19 16:27:00,41.5,32.2,29.96,SSW,213,4.0,14.0,69,0.00,,,0.39,meteohub,2013-05-19 22:27:00,
2013-05-19 16:32:00,42.4,32.2,29.96,WNW,288,7.0,14.0,67,0.00,,,0.39,meteohub,2013-05-19 22:32:00,
2013-05-19 16:38:00,43.3,31.3,29.96,NNW,340,7.0,11.0,62,0.00,,,0.39,meteohub,2013-05-19 22:38:00,
2013-05-19 16:43:00,44.1,30.7,29.96,WNW,303,5.0,11.0,59,0.00,,,0.39,meteohub,2013-05-19 22:43:00,
2013-05-19 16:48:00,44.2,31.3,29.96,WNW,296,7.0,11.0,60,0.00,,,0.39,meteohub,2013-05-19 22:48:00,
2013-05-19 16:53:00,44.4,31.5,29.96,SW,228,3.0,10.0,60,0.00,,,0.39,meteohub,2013-05-19 22:53:00,
2013-05-19 16:58:00,44.1,29.8,29.96,WNW,296,7.0,13.0,57,0.00,,,0.39,meteohub,2013-05-19 22:58:00,
2013-05-19 17:03:00,44.1,28.9,29.96,SW,228,6.0,13.0,55,0.00,,,0.39,meteohub,2013-05-19 23:03:00,
2013-05-19 17:08:00,43.9,29.7,29.96,WNW,296,4.0,13.0,57,0.00,,,0.39,meteohub,2013-05-19 23:08:00,
2013-05-19 17:13:00,43.5,30.9,29.96,NNW,336,4.0,13.0,61,0.00,,,0.39,meteohub,2013-05-19 23:13:00,
2013-05-19 17:18:00,43.3,31.6,29.96,NW,317,1.0,13.0,63,0.00,,,0.39,meteohub,2013-05-19 23:18:00,
2013-05-19 17:23:00,43.5,32.5,29.96,SW,228,3.0,11.0,65,0.00,,,0.39,meteohub,2013-05-19 23:23:00,
2013-05-19 17:28:00,43.5,30.9,29.96,WSW,257,5.0,11.0,61,0.00,,,0.39,meteohub,2013-05-19 23:28:00,
2013-05-19 17:33:00,43.5,30.6,29.96,SW,220,4.0,11.0,60,0.00,,,0.39,meteohub,2013-05-19 23:33:00,
2013-05-19 17:38:00,43.5,30.9,29.96,WSW,255,4.0,11.0,61,0.00,,,0.39,meteohub,2013-05-19 23:38:00,
2013-05-19 17:43:00,43.5,30.9,29.96,West,265,5.0,11.0,61,0.00,,,0.39,meteohub,2013-05-19 23:43:00,
2013-05-19 17:49:00,43.3,30.0,29.96,NW,311,5.0,9.0,59,0.00,,,0.39,meteohub,2013-05-19 23:49:00,
2013-05-19 17:54:00,43.0,30.4,29.97,WNW,303,8.0,10.0,61,0.00,,,0.39,meteohub,2013-05-19 23:54:00,
2013-05-19 17:59:00,42.6,31.3,29.97,WNW,288,8.0,10.0,64,0.00,,,0.39,meteohub,2013-05-19 23:59:00,
2013-05-19 18:04:00,42.6,31.6,29.97,NNE,23,2.0,11.0,65,0.00,,,0.39,meteohub,2013-05-20 00:04:00,
2013-05-19 18:09:00,42.6,31.6,29.99,NNW,348,10.0,11.0,65,0.00,,,0.00,meteohub,2013-05-20 00:09:00,
2013-05-19 18:14:00,40.5,32.5,29.99,NNW,344,5.0,13.0,73,0.00,,,0.00,meteohub,2013-05-20 00:14:00,
2013-05-19 18:19:00,38.3,32.4,29.99,West,271,0.0,14.0,79,0.00,,,0.00,meteohub,2013-05-20 00:19:00,
2013-05-19 18:24:00,37.6,32.0,29.99,WSW,241,5.0,14.0,80,0.00,,,0.00,meteohub,2013-05-20 00:24:00,
2013-05-19 18:29:00,37.2,30.9,29.98,SW,233,2.0,13.0,78,0.00,,,0.00,meteohub,2013-05-20 00:29:00,
2013-05-19 18:34:00,37.0,30.6,29.98,SW,232,5.0,9.0,77,0.00,,,0.00,meteohub,2013-05-20 00:34:00,
2013-05-19 18:39:00,37.4,30.6,29.98,SSW,208,3.0,7.0,76,0.00,,,0.00,meteohub,2013-05-20 00:39:00,
2013-05-19 18:44:00,37.8,31.3,29.98,SW,233,2.0,9.0,77,0.00,,,0.00,meteohub,2013-05-20 00:44:00,
2013-05-19 18:49:00,38.1,31.3,29.98,West,259,2.0,9.0,76,0.00,,,0.00,meteohub,2013-05-20 00:49:00,
2013-05-19 18:55:00,38.7,31.1,29.98,WSW,239,3.0,9.0,74,0.00,,,0.00,meteohub,2013-05-20 00:55:00,
2013-05-19 19:00:00,39.0,30.0,29.98,WSW,244,3.0,6.0,70,0.00,,,0.00,meteohub,2013-05-20 01:00:00,
2013-05-19 19:05:00,39.4,30.7,29.98,West,280,3.0,5.0,71,0.00,,,0.00,meteohub,2013-05-20 01:05:00,
2013-05-19 19:10:00,39.4,29.7,29.98,WSW,244,3.0,5.0,68,0.00,,,0.00,meteohub,2013-05-20 01:10:00,
2013-05-19 19:15:00,39.4,30.0,29.98,WSW,250,0.0,5.0,69,0.00,,,0.00,meteohub,2013-05-20 01:15:00,
2013-05-19 19:20:00,39.4,30.4,29.98,WSW,250,0.0,5.0,70,0.00,,,0.00,meteohub,2013-05-20 01:20:00,
2013-05-19 19:25:00,39.6,30.6,29.99,NW,308,2.0,4.0,70,0.00,,,0.00,meteohub,2013-05-20 01:25:00,
2013-05-19 19:30:00,39.9,30.9,29.99,WNW,283,2.0,5.0,70,0.00,,,0.00,meteohub,2013-05-20 01:30:00,
2013-05-19 19:35:00,39.7,30.7,29.99,WNW,288,3.0,5.0,70,0.00,,,0.00,meteohub,2013-05-20 01:35:00,
2013-05-19 19:40:00,39.6,30.2,30.00,WNW,284,2.0,5.0,69,0.00,,,0.00,meteohub,2013-05-20 01:40:00,
2013-05-19 19:45:00,39.0,30.0,30.00,WNW,288,3.0,4.0,70,0.00,,,0.00,meteohub,2013-05-20 01:45:00,
2013-05-19 19:50:00,38.5,29.8,30.00,WSW,244,3.0,7.0,71,0.00,,,0.00,meteohub,2013-05-20 01:50:00,
2013-05-19 19:56:00,38.3,30.4,30.00,WNW,303,1.0,7.0,73,0.00,,,0.00,meteohub,2013-05-20 01:56:00,
2013-05-19 20:01:00,37.9,30.7,30.01,WNW,303,1.0,7.0,75,0.00,,,0.00,meteohub,2013-05-20 02:01:00,
2013-05-19 20:06:00,37.8,31.3,30.01,WSW,255,1.0,5.0,77,0.00,,,0.00,meteohub,2013-05-20 02:06:00,
2013-05-19 20:11:00,37.2,30.7,30.01,WSW,255,0.0,5.0,77,0.00,,,0.00,meteohub,2013-05-20 02:11:00,
2013-05-19 20:16:00,36.9,30.6,30.01,SW,227,1.0,5.0,78,0.00,,,0.00,meteohub,2013-05-20 02:16:00,
2013-05-19 20:21:00,36.3,30.4,30.01,SW,227,0.0,3.0,79,0.00,,,0.00,meteohub,2013-05-20 02:21:00,
2013-05-19 20:26:00,36.1,30.6,30.01,SW,227,0.0,3.0,80,0.00,,,0.00,meteohub,2013-05-20 02:26:00,
2013-05-19 20:31:00,36.1,30.9,30.01,SW,227,0.0,3.0,81,0.00,,,0.00,meteohub,2013-05-20 02:31:00,
2013-05-19 20:36:00,36.0,30.9,30.01,SW,227,1.0,2.0,82,0.00,,,0.00,meteohub,2013-05-20 02:36:00,
2013-05-19 20:41:00,35.8,30.6,30.01,SW,227,0.0,1.0,81,0.00,,,0.00,meteohub,2013-05-20 02:41:00,
2013-05-19 20:46:00,35.4,30.6,30.01,SW,227,0.0,1.0,82,0.00,,,0.00,meteohub,2013-05-20 02:46:00,
2013-05-19 20:51:00,35.2,30.4,30.02,SW,227,0.0,1.0,82,0.00,,,0.00,meteohub,2013-05-20 02:51:00,
2013-05-19 20:56:00,35.1,30.2,30.02,SW,227,0.0,1.0,82,0.00,,,0.00,meteohub,2013-05-20 02:56:00,
2013-05-19 21:01:00,35.1,30.4,30.02,SW,227,1.0,2.0,83,0.00,,,0.00,meteohub,2013-05-20 03:01:00,
2013-05-19 21:06:00,35.1,30.7,30.02,SW,227,0.0,2.0,84,0.00,,,0.00,meteohub,2013-05-20 03:06:00,
2013-05-19 21:12:00,35.1,30.7,30.03,SW,227,0.0,1.0,84,0.00,,,0.00,meteohub,2013-05-20 03:12:00,
2013-05-19 21:17:00,35.1,30.4,30.03,SW,227,0.0,1.0,83,0.00,,,0.00,meteohub,2013-05-20 03:17:00,
2013-05-19 21:22:00,35.1,30.4,30.03,SW,227,0.0,0.0,83,0.00,,,0.00,meteohub,2013-05-20 03:22:00,
2013-05-19 21:27:00,35.2,30.9,30.03,SW,227,0.0,1.0,84,0.00,,,0.00,meteohub,2013-05-20 03:27:00,
2013-05-19 21:32:00,35.2,31.1,30.03,SW,227,0.0,1.0,85,0.00,,,0.00,meteohub,2013-05-20 03:32:00,
2013-05-19 21:37:00,35.1,30.7,30.03,SW,227,2.0,2.0,84,0.00,,,0.00,meteohub,2013-05-20 03:37:00,
2013-05-19 21:42:00,35.1,30.9,30.03,SW,227,1.0,2.0,85,0.00,,,0.00,meteohub,2013-05-20 03:42:00,
2013-05-19 21:47:00,35.1,31.3,30.04,SW,227,0.0,2.0,86,0.00,,,0.00,meteohub,2013-05-20 03:47:00,
2013-05-19 21:52:00,35.1,31.3,30.04,SW,227,0.0,2.0,86,0.00,,,0.00,meteohub,2013-05-20 03:52:00,
2013-05-19 21:57:00,35.1,31.6,30.04,WNW,284,1.0,1.0,87,0.00,,,0.00,meteohub,2013-05-20 03:57:00,
2013-05-19 22:01:00,35.1,31.6,30.04,SW,232,3.0,3.0,87,0.00,,,0.00,meteohub,2013-05-20 04:01:00,
2013-05-19 22:02:00,35.1,31.6,30.04,SW,232,3.0,3.0,87,0.00,,,0.00,meteohub,2013-05-20 04:02:00,
2013-05-19 22:06:00,34.9,31.5,30.04,SW,231,1.0,3.0,87,0.00,,,0.00,meteohub,2013-05-20 04:06:00,
2013-05-19 22:11:00,34.3,31.1,30.04,SE,138,1.0,3.0,88,0.00,,,0.00,meteohub,2013-05-20 04:11:00,
2013-05-19 22:16:00,34.3,31.5,30.04,SSE,163,0.0,4.0,89,0.00,,,0.00,meteohub,2013-05-20 04:16:00,
2013-05-19 22:21:00,34.2,31.3,30.04,SSE,163,0.0,4.0,89,0.00,,,0.00,meteohub,2013-05-20 04:21:00,
2013-05-19 22:26:00,34.2,31.3,30.04,SSE,163,1.0,3.0,89,0.00,,,0.00,meteohub,2013-05-20 04:26:00,
2013-05-19 22:31:00,34.2,31.5,30.04,SSE,163,1.0,1.0,90,0.00,,,0.00,meteohub,2013-05-20 04:31:00,
2013-05-19 22:36:00,34.2,31.8,30.03,SSE,163,0.0,1.0,91,0.00,,,0.00,meteohub,2013-05-20 04:36:00,
2013-05-19 22:41:00,34.2,31.8,30.04,SSE,163,0.0,1.0,91,0.00,,,0.00,meteohub,2013-05-20 04:41:00,
2013-05-19 22:46:00,34.2,31.8,30.04,SSE,163,0.0,1.0,91,0.00,,,0.00,meteohub,2013-05-20 04:46:00,
2013-05-19 22:51:00,34.0,31.3,30.04,SSE,163,0.0,0.0,90,0.00,,,0.00,meteohub,2013-05-20 04:51:00,
2013-05-19 22:57:00,33.8,31.1,30.03,SSE,163,0.0,1.0,90,0.00,,,0.00,meteohub,2013-05-20 04:57:00,
2013-05-19 23:02:00,33.6,30.9,30.03,SSE,163,0.0,1.0,90,0.00,,,0.00,meteohub,2013-05-20 05:02:00,
2013-05-19 23:07:00,33.4,30.7,30.03,SSE,163,0.0,1.0,90,0.00,,,0.00,meteohub,2013-05-20 05:07:00,
2013-05-19 23:12:00,33.3,30.6,30.03,SSE,163,0.0,2.0,90,0.00,,,0.00,meteohub,2013-05-20 05:12:00,
2013-05-19 23:17:00,33.3,30.9,30.03,SSE,163,1.0,2.0,91,0.00,,,0.00,meteohub,2013-05-20 05:17:00,
2013-05-19 23:22:00,33.1,30.4,30.03,SSE,163,1.0,2.0,90,0.00,,,0.00,meteohub,2013-05-20 05:22:00,
2013-05-19 23:27:00,32.9,30.4,30.03,SE,142,1.0,4.0,90,0.00,,,0.00,meteohub,2013-05-20 05:27:00,
2013-05-19 23:32:00,32.9,30.4,30.03,SE,142,0.0,4.0,90,0.00,,,0.00,meteohub,2013-05-20 05:32:00,
2013-05-19 23:37:00,32.7,30.2,30.03,SE,142,0.0,4.0,90,0.00,,,0.00,meteohub,2013-05-20 05:37:00,
2013-05-19 23:42:00,32.7,30.4,30.03,SE,142,1.0,2.0,91,0.00,,,0.00,meteohub,2013-05-20 05:42:00,
2013-05-19 23:47:00,32.7,30.4,30.03,SE,142,0.0,2.0,91,0.00,,,0.00,meteohub,2013-05-20 05:47:00,
2013-05-19 23:52:00,32.5,30.2,30.03,SE,142,1.0,2.0,91,0.00,,,0.00,meteohub,2013-05-20 05:52:00,
2013-05-19 23:57:00,32.5,30.2,30.03,SE,142,0.0,2.0,91,0.00,,,0.00,meteohub,2013-05-20 05:57:00,